Theta_e
291 287 283 284 285 285 284 283 282 285 288 286 285 285 288 291 292 291 292 294 296 296 300 302 304 309 316 324 327 324 324 325 324 322 320 318 316 316 316 314 312 311 310 308
286 283 286 287 287 285 284 282 282 285 287 286 285 285 288 291 291 292 292 293 294 297 298 301 303 305 312 316 325 323 323 324 323 320 321 317 316 309 311 311 308 307 305 304
283 284 287 286 285 283 284 282 282 282 286 287 286 284 286 289 292 293 294 295 296 296 297 299 301 304 310 317 321 323 322 322 322 320 319 314 309 304 301 303 303 302 301 301
284 287 285 284 283 284 280 285 284 283 282 278 286 274 283 287 288 291 293 295 297 299 300 300 301 303 307 316 324 323 323 321 321 318 315 309 309 305 306 302 301 300 300 299
283 283 283 282 283 285 283 287 285 284 282 280 281 277 281 288 286 289 292 296 298 300 300 301 302 303 306 312 321 321 322 320 319 316 312 310 311 311 303 300 299 297 297 295
285 289 286 286 287 287 288 285 284 284 281 274 280 279 279 283 286 289 293 297 297 298 299 301 303 304 306 309 317 322 320 317 318 315 311 312 311 303 298 297 294 294 293 292
283 283 286 288 284 287 285 282 276 274 274 273 281 279 281 286 289 292 294 295 296 297 299 300 301 302 306 307 313 317 319 316 316 313 311 312 309 302 300 298 295 292 291 289
277 276 282 286 285 281 282 281 275 269 271 274 281 276 281 289 291 295 296 296 295 297 299 299 300 300 304 307 310 315 315 315 313 311 311 313 310 303 301 299 296 294 291 289
277 277 284 284 286 284 281 279 284 277 278 274 278 282 286 289 289 291 293 293 293 296 296 296 295 298 302 308 310 316 315 314 311 310 310 306 304 301 298 296 295 292 291 289
280 274 281 283 285 286 283 285 278 279 269 268 275 277 278 284 286 289 289 291 293 294 293 293 293 297 306 309 312 316 316 313 309 309 306 301 298 296 294 294 292 290 290 289
283 278 279 282 281 280 281 280 282 281 278 271 270 275 286 285 287 287 289 291 291 291 291 291 295 301 307 309 312 315 313 307 305 301 299 296 293 293 292 292 292 290 288 287
283 278 274 278 284 284 283 281 281 275 272 275 274 274 287 290 289 288 289 288 290 290 290 292 294 299 300 300 306 310 306 302 299 298 295 293 292 292 291 290 290 289 287 287
283 277 272 277 281 283 282 282 282 280 278 273 270 275 288 288 288 289 287 286 288 289 289 290 291 293 297 296 296 299 299 298 296 295 293 292 291 290 289 289 288 288 287 287
285 278 275 273 276 279 276 278 280 278 272 274 276 278 283 285 286 288 285 286 287 287 288 289 288 291 294 294 294 293 294 293 293 292 291 290 290 289 288 288 287 287 287 287
283 275 276 277 278 278 277 276 277 276 277 273 277 278 282 285 287 285 286 286 286 286 287 288 286 288 290 292 292 292 292 292 292 291 290 289 289 288 287 288 287 288 288 287
281 274 273 271 275 275 274 277 277 278 278 278 279 279 287 288 288 287 285 285 285 285 286 286 286 286 287 290 290 291 291 291 291 290 288 288 288 287 288 288 287 287 286 286
279 276 273 269 271 270 269 273 278 280 281 281 278 283 286 285 284 285 284 285 285 285 285 285 285 285 285 288 290 290 290 291 290 289 288 288 288 287 287 287 286 286 285 285
277 276 275 270 269 268 279 280 280 277 279 282 283 284 284 283 285 287 286 285 285 285 285 285 285 285 285 287 289 291 291 290 289 288 287 287 287 287 286 286 286 285 285 285
281 278 272 268 266 273 276 281 282 280 280 286 284 283 283 284 285 290 287 287 286 285 285 285 285 285 285 285 288 289 288 288 288 287 287 287 287 286 286 285 285 284 283 283
278 279 274 265 266 267 277 283 284 284 275 286 285 283 282 283 277 282 286 287 286 286 285 285 285 285 285 285 285 285 285 286 286 286 286 286 286 286 285 284 282 283 283 282
272 273 271 271 269 272 279 281 283 274 277 285 285 284 282 280 282 284 286 286 286 286 286 285 285 285 285 285 286 285 286 284 285 285 285 285 286 285 284 283 282 282 282 281
271 269 269 270 268 266 281 281 279 284 287 285 284 283 282 284 284 285 285 285 285 284 285 286 285 285 285 287 287 285 284 284 284 284 284 283 283 283 283 283 282 282 282 282
270 275 274 274 274 282 282 284 287 286 283 282 281 283 283 282 283 284 285 284 285 284 283 284 285 284 285 286 287 285 283 283 283 283 282 282 282 283 283 283 282 281 282 283
272 275 274 274 280 280 282 284 285 284 281 282 282 282 282 281 284 283 284 284 284 283 282 282 283 283 282 282 284 285 284 282 284 283 282 281 282 282 282 283 283 283 282 282
277 275 274 274 277 280 281 282 283 283 282 281 282 282 284 284 283 283 283 283 283 282 282 282 282 282 281 280 282 283 282 283 283 282 280 281 282 283 281 282 282 282 283 284
275 275 274 275 281 280 280 282 282 281 281 281 281 282 282 283 283 283 282 282 282 282 281 280 279 280 280 281 281 282 283 284 282 281 280 281 282 282 282 282 281 282 283 282
Wind_Speed
4 2 3 4 4 6 8 13 18 20 20 20 17 25 26 24 25 28 27 25 25 26 23 23 24 21 21 20 23 23 23 22 17 14 14 13 12 9 9 7 10 11 10 10
3 1 1 5 5 4 9 14 16 14 10 15 22 28 27 23 27 25 25 26 25 25 24 22 24 24 21 19 24 22 23 23 20 15 14 12 12 7 7 8 9 9 10 10
5 2 2 5 9 9 11 11 12 19 17 17 22 23 18 23 26 24 21 22 23 24 26 24 23 24 21 21 22 21 25 23 22 20 14 9 9 7 5 7 8 8 10 10
6 0 4 9 11 4 7 4 11 18 16 11 11 20 15 19 19 21 18 11 12 16 18 19 22 24 23 22 20 23 22 22 24 21 18 22 17 13 9 9 9 9 10 10
3 4 6 10 2 3 8 12 17 20 17 15 10 8 14 26 21 17 13 11 12 15 17 18 18 22 23 23 20 20 24 22 22 23 21 19 18 14 10 9 14 11 9 8
10 4 4 3 7 8 12 11 21 9 4 6 7 6 17 22 12 23 12 14 17 20 20 19 21 21 20 22 23 23 22 25 25 23 25 26 22 16 13 12 11 8 7 7
10 2 3 4 6 1 2 12 7 4 4 12 15 14 21 27 20 13 15 18 21 21 21 21 23 20 21 23 24 24 24 23 24 26 24 25 23 22 22 19 14 15 10 8
5 4 2 3 3 6 13 4 4 9 14 21 17 12 13 19 21 14 16 21 23 24 21 23 25 25 23 24 25 25 25 22 21 25 23 22 23 14 13 16 14 12 11 10
4 6 3 6 9 3 3 5 8 8 15 12 10 22 23 21 15 18 19 23 26 24 27 28 28 24 24 24 25 25 26 23 22 22 20 16 17 19 17 18 15 13 15 12
3 8 3 6 3 7 8 5 4 4 10 17 14 26 14 19 20 19 23 27 26 27 25 23 22 23 19 19 20 22 22 22 22 20 16 17 16 18 19 18 20 18 17 17
4 2 3 6 7 3 4 4 6 5 7 10 15 15 6 18 16 22 28 26 27 28 23 22 23 14 9 12 16 18 18 19 17 18 16 16 18 20 20 16 19 19 18 17
5 3 7 10 13 7 8 6 6 6 9 15 15 27 23 14 23 27 27 24 26 24 20 17 16 2 5 4 5 12 16 19 19 18 18 19 20 21 19 19 21 18 19 17
7 3 7 6 3 5 4 6 9 11 10 20 14 16 10 27 28 26 27 26 24 24 15 11 11 10 5 8 7 12 16 18 17 19 20 19 19 20 21 21 20 19 19 17
5 4 9 9 14 15 18 16 16 14 8 15 18 28 30 28 29 28 26 22 24 20 12 9 8 7 4 6 12 8 15 18 18 18 19 21 19 20 22 22 21 19 17 18
4 7 9 16 23 24 25 26 24 17 22 14 28 26 29 29 27 25 19 22 22 16 11 9 5 6 5 6 10 13 14 16 18 20 19 17 20 19 21 21 20 17 13 14
5 4 5 9 11 10 18 23 23 22 21 22 26 30 21 25 24 18 15 22 20 16 10 8 6 5 5 7 10 12 14 16 18 18 19 18 18 20 20 19 18 16 14 13
6 3 3 9 7 13 8 10 10 10 13 13 12 19 23 24 25 19 14 22 19 18 10 7 7 6 6 5 8 11 13 15 17 19 18 19 17 20 19 17 16 14 14 12
5 4 3 9 7 5 2 7 9 14 17 16 17 19 20 19 22 6 9 20 18 15 9 7 6 6 7 6 8 11 13 15 18 18 19 18 17 16 18 17 15 13 12 13
9 7 3 5 4 13 9 2 0 3 12 10 10 15 18 20 19 4 15 16 16 12 8 6 6 6 8 8 8 11 12 14 16 16 17 16 16 16 16 15 13 11 11 9
6 8 6 3 5 7 2 3 3 2 10 4 7 14 18 17 15 13 21 15 16 10 6 7 7 8 10 9 8 12 11 13 13 13 14 15 14 15 15 14 12 8 9 8
5 6 15 9 8 12 14 10 6 3 4 4 6 13 16 9 9 19 15 13 9 10 7 7 8 9 9 9 11 12 12 12 10 12 13 12 11 12 12 10 7 9 8 8
10 10 7 7 8 13 13 3 6 3 5 6 15 15 15 12 16 13 12 11 10 10 9 7 7 8 8 9 11 11 12 9 10 10 11 10 9 7 8 11 8 8 8 6
5 8 7 13 11 6 9 6 4 4 11 14 14 13 12 12 10 13 12 10 8 6 6 6 6 7 8 8 8 10 5 8 8 9 9 8 8 8 8 9 8 7 7 6
8 7 6 2 9 18 17 17 16 14 12 10 11 12 10 9 8 8 7 7 8 6 4 3 5 5 5 5 4 7 6 7 9 9 8 7 8 7 6 5 5 6 6 6
4 11 6 9 19 19 20 17 17 10 6 7 7 4 7 6 6 5 6 6 5 4 4 4 3 4 4 3 5 6 6 6 6 6 6 6 5 6 6 4 6 7 6 7
10 10 10 11 11 7 8 1 4 4 4 3 4 5 3 3 5 5 5 5 5 5 3 3 4 4 4 4 4 4 5 6 8 6 5 6 6 6 5 6 5 6 8 8
Wind_Direction
22 317 20 11 353 310 294 284 288 293 297 299 286 289 293 289 286 279 277 275 276 271 267 265 258 252 257 249 216 203 195 192 180 181 176 180 182 181 180 174 166 167 169 169
276 49 83 321 304 283 284 289 288 286 283 300 295 294 294 288 276 278 279 277 272 276 274 266 261 256 243 247 227 198 200 188 184 180 185 181 172 174 167 162 162 166 162 163
298 7 254 288 307 300 289 277 289 293 311 286 289 285 301 299 291 286 283 278 278 278 280 279 265 256 250 236 222 205 197 188 186 183 180 154 144 125 148 164 155 162 161 160
274 355 281 295 293 277 301 335 302 299 313 306 338 296 308 292 302 295 298 308 296 297 290 282 272 261 254 242 226 209 196 194 182 180 175 167 177 174 175 160 153 153 160 160
1 286 311 301 292 221 283 319 298 293 289 303 284 245 301 299 304 306 318 308 306 302 301 299 280 263 252 249 228 203 201 187 184 178 174 178 180 183 154 150 143 148 139 123
263 313 271 273 285 248 295 300 298 290 263 239 272 254 292 296 309 307 311 303 306 308 302 294 291 278 253 245 234 217 201 182 180 184 178 183 176 153 148 152 141 138 127 111
310 230 230 233 292 218 247 331 317 296 274 286 305 293 263 285 300 279 297 296 307 311 301 299 290 272 255 236 228 220 205 195 187 178 180 182 173 160 157 158 151 143 135 126
324 308 269 162 270 297 309 274 304 301 313 301 303 250 264 300 305 274 276 292 312 310 302 297 287 279 262 231 226 210 207 194 187 178 180 182 169 158 154 159 152 141 134 124
292 260 290 247 274 229 94 239 316 269 267 273 266 273 287 277 291 283 301 309 304 309 315 299 293 275 261 228 215 210 202 195 181 181 175 161 162 151 145 147 137 135 126 120
169 289 244 306 303 237 232 353 269 265 300 300 288 291 278 303 305 314 309 313 319 310 304 296 286 273 253 219 215 205 191 186 175 173 165 151 147 138 133 144 136 135 130 125
159 209 301 303 211 248 218 249 218 285 264 292 306 299 302 313 308 311 314 317 318 310 309 301 297 270 244 224 210 200 176 162 159 146 146 143 138 137 135 140 134 133 131 131
177 177 273 267 293 287 242 254 239 274 288 274 285 275 287 284 323 311 316 326 315 313 307 307 320 197 135 106 169 172 159 146 149 143 139 142 136 134 136 137 134 139 134 133
159 185 294 294 152 147 227 216 244 281 282 264 265 275 281 316 311 320 324 321 317 313 309 314 329 338 122 105 76 140 139 139 138 139 140 138 135 136 134 133 134 133 135 133
149 218 229 258 284 311 290 277 278 277 259 281 256 282 297 310 315 326 324 313 318 316 313 316 329 3 12 118 121 120 127 130 134 135 136 136 138 140 134 131 129 131 144 135
166 267 259 261 275 281 279 281 283 263 249 257 284 292 297 306 320 323 313 320 325 332 330 329 345 360 53 106 115 122 124 128 132 131 130 130 129 130 126 130 130 133 141 130
156 271 306 281 267 280 279 271 267 267 264 254 267 282 299 318 315 331 329 326 333 341 338 334 352 34 44 103 117 122 127 131 129 126 124 123 132 126 128 134 132 138 143 132
182 233 323 272 322 306 270 240 220 264 268 263 274 300 317 319 323 339 336 336 341 338 348 353 8 20 36 65 114 125 127 127 126 124 123 125 131 129 134 126 132 138 135 136
166 173 255 287 312 254 289 280 266 271 274 271 268 290 308 311 316 325 357 340 337 341 352 6 30 35 37 49 102 115 117 121 121 122 123 122 127 134 128 132 135 138 141 144
230 210 242 274 275 295 277 83 165 292 292 250 264 314 322 326 321 205 24 352 339 335 353 23 51 52 59 57 82 100 110 113 115 122 120 127 131 129 128 129 136 139 137 145
193 227 207 151 264 266 274 113 51 292 280 190 263 324 331 336 340 323 350 353 335 7 6 28 44 60 64 54 66 83 91 98 104 114 116 118 126 126 131 136 143 136 134 138
168 196 223 224 261 273 262 267 264 252 296 271 278 319 314 306 304 301 326 349 351 1 27 42 39 70 77 78 84 81 89 85 94 101 108 114 124 130 132 127 123 126 138 151
178 166 192 191 225 266 188 174 206 293 291 301 309 302 295 299 303 319 329 349 16 4 9 48 52 61 63 70 86 82 79 83 94 105 108 113 118 112 121 131 142 136 134 139
236 208 186 203 218 239 191 247 235 269 292 303 295 303 288 301 304 324 333 343 7 38 17 30 62 57 46 57 80 98 105 112 116 113 115 119 117 127 138 142 131 140 153 160
230 183 237 201 248 245 247 247 259 272 266 286 290 286 286 278 311 310 333 349 347 27 57 69 89 100 102 93 92 116 129 118 131 137 136 127 129 127 122 122 153 154 169 181
209 156 200 259 280 278 269 251 261 261 244 278 285 260 285 297 311 323 338 345 355 5 49 76 102 119 117 94 108 128 140 147 132 106 102 119 131 155 150 172 182 187 198 186
186 203 202 226 231 241 264 182 160 217 254 273 289 307 310 311 333 345 343 340 340 358 16 93 105 130 155 154 144 141 150 138 130 131 148 166 160 169 174 188 203 231 248 213